Time,TemperatureF,DewpointF,PressureIn,WindDirection,WindDirectionDegrees,WindSpeedMPH,WindSpeedGustMPH,Humidity,HourlyPrecipIn,Conditions,Clouds,dailyrainin,SoftwareType,DateUTC
2013-05-17 00:03:00,77.0,69.0,30.03,East,92,8.0,15.0,77,0.00,,,0.00,,2013-05-17 04:03:00,
2013-05-17 00:13:00,77.0,69.0,30.03,East,92,8.0,15.0,77,0.00,,,0.00,,2013-05-17 04:13:00,
2013-05-17 00:23:00,77.0,69.0,30.03,SE,138,7.0,13.0,77,0.00,,,0.00,,2013-05-17 04:23:00,
2013-05-17 00:33:00,77.0,69.0,30.03,ESE,114,6.0,13.0,77,0.00,,,0.00,,2013-05-17 04:33:00,
2013-05-17 00:43:00,77.0,69.0,30.03,ESE,114,6.0,13.0,77,0.00,,,0.00,,2013-05-17 04:43:00,
2013-05-17 00:53:00,77.0,69.0,30.03,SSE,149,8.0,12.0,77,0.00,,,0.00,,2013-05-17 04:53:00,
2013-05-17 01:03:00,77.0,69.0,30.02,ESE,104,8.0,13.0,77,0.00,,,0.00,,2013-05-17 05:03:00,
2013-05-17 01:14:00,77.0,69.0,30.02,ESE,104,8.0,13.0,77,0.00,,,0.00,,2013-05-17 05:14:00,
2013-05-17 01:22:00,77.0,69.0,30.02,SE,141,6.0,12.0,77,0.00,,,0.00,,2013-05-17 05:22:00,
2013-05-17 01:32:00,77.0,69.0,30.02,SE,141,6.0,12.0,77,0.00,,,0.00,,2013-05-17 05:32:00,
2013-05-17 01:42:00,77.0,69.0,30.02,SE,141,6.0,12.0,77,0.00,,,0.00,,2013-05-17 05:42:00,
2013-05-17 01:52:00,77.0,69.0,30.01,ESE,114,6.0,11.0,77,0.00,,,0.00,,2013-05-17 05:52:00,
2013-05-17 02:02:00,77.0,69.0,30.01,SE,128,5.0,11.0,77,0.00,,,0.00,,2013-05-17 06:02:00,
2013-05-17 02:11:00,77.0,69.0,30.01,SE,128,5.0,11.0,77,0.00,,,0.00,,2013-05-17 06:11:00,
2013-05-17 02:22:00,77.0,69.0,30.00,SSE,148,6.0,10.0,77,0.00,,,0.00,,2013-05-17 06:22:00,
2013-05-17 02:32:00,77.0,70.0,30.00,SE,124,6.0,10.0,78,0.00,,,0.00,,2013-05-17 06:32:00,
2013-05-17 02:42:00,77.0,70.0,30.00,SE,124,6.0,10.0,78,0.00,,,0.00,,2013-05-17 06:42:00,
2013-05-17 02:52:00,77.0,70.0,30.00,East,92,5.0,10.0,78,0.00,,,0.00,,2013-05-17 06:52:00,
2013-05-17 03:02:00,77.0,70.0,30.00,ESE,115,3.0,8.0,78,0.00,,,0.00,,2013-05-17 07:02:00,
2013-05-17 03:11:00,77.0,70.0,30.00,ESE,115,3.0,8.0,78,0.00,,,0.00,,2013-05-17 07:11:00,
2013-05-17 03:21:00,77.0,70.0,29.99,ESE,107,4.0,8.0,79,0.00,,,0.00,,2013-05-17 07:21:00,
2013-05-17 03:32:00,77.0,70.0,29.99,East,92,4.0,7.0,79,0.00,,,0.00,,2013-05-17 07:32:00,
2013-05-17 03:43:00,77.0,70.0,29.99,East,92,4.0,7.0,79,0.00,,,0.00,,2013-05-17 07:43:00,
2013-05-17 03:53:00,77.0,70.0,29.99,East,87,2.0,7.0,80,0.00,,,0.00,,2013-05-17 07:53:00,
2013-05-17 04:02:00,76.0,70.0,29.99,East,88,1.0,5.0,81,0.00,,,0.00,,2013-05-17 08:02:00,
2013-05-17 04:12:00,76.0,70.0,29.99,East,88,1.0,5.0,81,0.00,,,0.00,,2013-05-17 08:12:00,
2013-05-17 04:23:00,76.0,70.0,29.99,East,89,0.0,7.0,81,0.00,,,0.00,,2013-05-17 08:23:00,
2013-05-17 04:33:00,76.0,70.0,29.99,ESE,121,2.0,7.0,82,0.00,,,0.00,,2013-05-17 08:33:00,
2013-05-17 04:42:00,76.0,70.0,29.99,ESE,121,2.0,7.0,82,0.00,,,0.00,,2013-05-17 08:42:00,
2013-05-17 04:52:00,76.0,70.0,29.99,East,100,0.0,5.0,83,0.00,,,0.00,,2013-05-17 08:52:00,
2013-05-17 05:02:00,76.0,70.0,29.99,East,100,0.0,2.0,83,0.00,,,0.00,,2013-05-17 09:02:00,
2013-05-17 05:12:00,76.0,70.0,29.99,East,100,0.0,2.0,83,0.00,,,0.00,,2013-05-17 09:12:00,
2013-05-17 05:22:00,76.0,71.0,30.00,ENE,66,0.0,5.0,84,0.00,,,0.00,,2013-05-17 09:22:00,
2013-05-17 05:33:00,76.0,71.0,29.99,ENE,66,0.0,0.0,84,0.00,,,0.00,,2013-05-17 09:33:00,
2013-05-17 05:42:00,76.0,71.0,29.99,ENE,66,0.0,0.0,84,0.00,,,0.00,,2013-05-17 09:42:00,
2013-05-17 05:53:00,76.0,72.0,30.00,NE,56,4.0,5.0,86,0.00,,,0.00,,2013-05-17 09:53:00,
2013-05-17 06:03:00,76.0,72.0,30.00,NNE,30,5.0,6.0,86,0.00,,,0.00,,2013-05-17 10:03:00,
2013-05-17 06:12:00,76.0,72.0,30.00,NNE,30,5.0,6.0,86,0.00,,,0.00,,2013-05-17 10:12:00,
2013-05-17 06:23:00,76.0,72.0,30.00,NE,38,4.0,6.0,87,0.00,,,0.00,,2013-05-17 10:23:00,
2013-05-17 06:33:00,76.0,72.0,30.01,NE,38,1.0,5.0,87,0.00,,,0.00,,2013-05-17 10:33:00,
2013-05-17 06:42:00,76.0,72.0,30.01,NE,38,1.0,5.0,87,0.00,,,0.00,,2013-05-17 10:42:00,
2013-05-17 06:54:00,76.0,72.0,30.01,NE,38,1.0,5.0,87,0.00,,,0.00,,2013-05-17 10:54:00,
2013-05-17 07:02:00,76.0,72.0,30.01,NE,38,2.0,4.0,88,0.00,,,0.00,,2013-05-17 11:02:00,
2013-05-17 07:12:00,76.0,72.0,30.01,NE,38,2.0,4.0,88,0.00,,,0.00,,2013-05-17 11:12:00,
2013-05-17 07:23:00,76.0,72.0,30.01,NE,49,2.0,5.0,88,0.00,,,0.00,,2013-05-17 11:23:00,
2013-05-17 07:34:00,76.0,72.0,30.01,NE,50,1.0,5.0,88,0.00,,,0.00,,2013-05-17 11:34:00,
2013-05-17 07:42:00,76.0,72.0,30.01,NE,50,1.0,5.0,88,0.00,,,0.00,,2013-05-17 11:42:00,
2013-05-17 07:53:00,76.0,72.0,30.02,ENE,65,2.0,5.0,88,0.00,,,0.00,,2013-05-17 11:53:00,
2013-05-17 08:03:00,76.0,72.0,30.02,East,90,0.0,6.0,88,0.00,,,0.00,,2013-05-17 12:03:00,
2013-05-17 08:12:00,76.0,72.0,30.02,East,90,0.0,6.0,88,0.00,,,0.00,,2013-05-17 12:12:00,
2013-05-17 08:23:00,78.0,74.0,30.03,NE,37,4.0,6.0,87,0.00,,,0.00,,2013-05-17 12:23:00,
2013-05-17 08:32:00,78.0,73.0,30.03,NNE,32,6.0,7.0,85,0.00,,,0.00,,2013-05-17 12:32:00,
2013-05-17 08:43:00,78.0,73.0,30.03,NNE,32,6.0,7.0,85,0.00,,,0.00,,2013-05-17 12:43:00,
2013-05-17 08:53:00,79.0,73.0,30.03,NE,39,6.0,10.0,82,0.00,,,0.00,,2013-05-17 12:53:00,
2013-05-17 09:03:00,79.0,73.0,30.03,NNE,26,6.0,8.0,82,0.00,,,0.00,,2013-05-17 13:03:00,
2013-05-17 09:12:00,79.0,73.0,30.03,NNE,26,6.0,8.0,82,0.00,,,0.00,,2013-05-17 13:12:00,
2013-05-17 09:23:00,79.0,73.0,30.03,ENE,65,3.0,6.0,82,0.00,,,0.00,,2013-05-17 13:23:00,
2013-05-17 09:33:00,80.0,74.0,30.03,ESE,109,2.0,6.0,81,0.00,,,0.00,,2013-05-17 13:33:00,
2013-05-17 09:42:00,80.0,74.0,30.03,ESE,109,2.0,6.0,81,0.00,,,0.00,,2013-05-17 13:42:00,
2013-05-17 09:52:00,82.0,74.0,30.03,ESE,109,4.0,6.0,78,0.00,,,0.00,,2013-05-17 13:52:00,
2013-05-17 10:02:00,83.0,75.0,30.03,East,82,2.0,7.0,76,0.00,,,0.00,,2013-05-17 14:02:00,
2013-05-17 10:13:00,83.0,75.0,30.03,East,82,2.0,7.0,76,0.00,,,0.00,,2013-05-17 14:13:00,
2013-05-17 10:22:00,85.0,75.0,30.03,SE,126,5.0,8.0,73,0.00,,,0.00,,2013-05-17 14:22:00,
2013-05-17 10:34:00,85.0,75.0,30.03,ENE,72,4.0,9.0,72,0.00,,,0.00,,2013-05-17 14:34:00,
2013-05-17 10:43:00,85.0,75.0,30.03,ENE,72,4.0,9.0,72,0.00,,,0.00,,2013-05-17 14:43:00,
2013-05-17 10:53:00,86.0,75.0,30.04,NE,50,3.0,9.0,71,0.00,,,0.00,,2013-05-17 14:53:00,
2013-05-17 11:03:00,87.0,76.0,30.04,ESE,120,3.0,6.0,71,0.00,,,0.00,,2013-05-17 15:03:00,
2013-05-17 11:14:00,87.0,76.0,30.04,ESE,120,3.0,6.0,71,0.00,,,0.00,,2013-05-17 15:14:00,
2013-05-17 11:25:00,88.0,77.0,30.04,SE,127,4.0,8.0,69,0.00,,,0.00,,2013-05-17 15:25:00,
2013-05-17 11:37:00,87.0,76.0,30.05,ESE,105,7.0,9.0,70,0.00,,,0.00,,2013-05-17 15:37:00,
2013-05-17 11:47:00,87.0,76.0,30.05,ESE,105,7.0,9.0,70,0.00,,,0.00,,2013-05-17 15:47:00,
2013-05-17 11:57:00,87.0,76.0,30.05,ENE,77,6.0,8.0,70,0.00,,,0.00,,2013-05-17 15:57:00,
2013-05-17 12:07:00,87.0,76.0,30.06,NE,37,5.0,9.0,70,0.00,,,0.00,,2013-05-17 16:07:00,
2013-05-17 12:14:00,87.0,76.0,30.06,NE,37,5.0,9.0,70,0.00,,,0.00,,2013-05-17 16:14:00,
2013-05-17 12:26:00,84.0,75.0,30.05,NE,46,5.0,10.0,74,0.00,,,0.00,,2013-05-17 16:26:00,
2013-05-17 12:37:00,85.0,76.0,30.05,ESE,111,5.0,8.0,74,0.00,,,0.00,,2013-05-17 16:37:00,
2013-05-17 12:49:00,85.0,76.0,30.05,ESE,111,5.0,8.0,74,0.00,,,0.00,,2013-05-17 16:49:00,
2013-05-17 12:56:00,86.0,76.0,30.05,SE,143,5.0,11.0,73,0.00,,,0.00,,2013-05-17 16:56:00,
2013-05-17 13:08:00,88.0,77.0,30.05,East,100,4.0,10.0,70,0.00,,,0.00,,2013-05-17 17:08:00,
2013-05-17 13:19:00,88.0,77.0,30.05,East,100,4.0,10.0,70,0.00,,,0.00,,2013-05-17 17:19:00,
2013-05-17 13:30:00,88.0,77.0,30.05,SE,129,7.0,11.0,69,0.00,,,0.00,,2013-05-17 17:30:00,
2013-05-17 13:40:00,88.0,-99.9,30.05,ENE,73,7.0,10.0,69,0.00,,,0.00,,2013-05-17 17:40:00,
2013-05-17 13:49:00,88.0,77.0,30.05,ENE,73,7.0,10.0,69,0.00,,,0.00,,2013-05-17 17:49:00,
2013-05-17 14:00:00,88.0,-99.9,30.04,ENE,73,4.0,10.0,68,0.00,,,0.00,,2013-05-17 18:00:00,
2013-05-17 14:09:00,88.0,77.0,30.04,SE,131,4.0,10.0,69,0.00,,,0.00,,2013-05-17 18:09:00,
2013-05-17 14:20:00,88.0,77.0,30.04,SE,131,4.0,10.0,69,0.00,,,0.00,,2013-05-17 18:20:00,
2013-05-17 14:30:00,89.0,77.0,30.04,ESE,111,4.0,9.0,67,0.00,,,0.00,,2013-05-17 18:30:00,
2013-05-17 14:40:00,89.0,-99.9,30.04,ENE,64,5.0,11.0,68,0.00,,,0.00,,2013-05-17 18:40:00,
2013-05-17 14:50:00,-999.0,-99.9,30.04,ENE,64,5.0,11.0,68,0.00,,,0.00,,2013-05-17 18:50:00,
2013-05-17 15:00:00,89.0,-99.9,30.04,ESE,116,7.0,10.0,66,0.00,,,0.00,,2013-05-17 19:00:00,
2013-05-17 15:10:00,89.0,76.0,30.03,ESE,104,5.0,9.0,65,0.00,,,0.00,,2013-05-17 19:10:00,
2013-05-17 15:20:00,89.0,76.0,30.03,ESE,104,5.0,9.0,65,0.00,,,0.00,,2013-05-17 19:20:00,
2013-05-17 15:30:00,89.0,77.0,30.03,ESE,121,2.0,9.0,68,0.00,,,0.00,,2013-05-17 19:30:00,
2013-05-17 15:40:00,90.0,78.0,30.03,ESE,110,3.0,8.0,67,0.00,,,0.00,,2013-05-17 19:40:00,
2013-05-17 15:51:00,90.0,78.0,30.03,ESE,110,3.0,8.0,67,0.00,,,0.00,,2013-05-17 19:51:00,
2013-05-17 16:01:00,-999.0,-99.9,30.02,ESE,108,4.0,9.0,68,0.00,,,0.00,,2013-05-17 20:01:00,
2013-05-17 16:09:00,88.0,76.0,30.02,SE,146,6.0,10.0,68,0.00,,,0.00,,2013-05-17 20:09:00,
2013-05-17 16:20:00,88.0,76.0,30.02,SE,146,6.0,10.0,68,0.00,,,0.00,,2013-05-17 20:20:00,
2013-05-17 16:30:00,88.0,77.0,30.02,ESE,115,4.0,9.0,70,0.00,,,0.00,,2013-05-17 20:30:00,
2013-05-17 16:40:00,87.0,76.0,30.02,South,177,6.0,9.0,70,0.00,,,0.00,,2013-05-17 20:40:00,
2013-05-17 16:50:00,87.0,76.0,30.02,South,177,6.0,9.0,70,0.00,,,0.00,,2013-05-17 20:50:00,
2013-05-17 16:58:00,86.0,76.0,30.02,SSE,149,6.0,11.0,73,0.00,,,0.00,,2013-05-17 20:58:00,
2013-05-17 17:07:00,85.0,76.0,30.03,SE,125,7.0,10.0,74,0.00,,,0.00,,2013-05-17 21:07:00,
2013-05-17 17:17:00,85.0,76.0,30.03,SE,125,7.0,10.0,74,0.00,,,0.00,,2013-05-17 21:17:00,
2013-05-17 17:26:00,84.0,75.0,30.02,SE,129,6.0,11.0,75,0.00,,,0.00,,2013-05-17 21:26:00,
2013-05-17 17:39:00,84.0,76.0,30.02,SE,135,5.0,9.0,77,0.00,,,0.00,,2013-05-17 21:39:00,
2013-05-17 17:49:00,84.0,76.0,30.02,SE,135,5.0,9.0,77,0.00,,,0.00,,2013-05-17 21:49:00,
2013-05-17 17:58:00,83.0,75.0,30.01,SE,130,5.0,8.0,78,0.00,,,0.00,,2013-05-17 21:58:00,
2013-05-17 18:07:00,84.0,76.0,30.01,SE,126,4.0,9.0,77,0.00,,,0.00,,2013-05-17 22:07:00,
2013-05-17 18:17:00,84.0,76.0,30.01,SE,126,4.0,9.0,77,0.00,,,0.00,,2013-05-17 22:17:00,
2013-05-17 18:28:00,84.0,76.0,30.01,East,88,4.0,8.0,76,0.00,,,0.00,,2013-05-17 22:28:00,
2013-05-17 18:38:00,84.0,76.0,30.01,East,88,4.0,8.0,76,0.00,,,0.00,,2013-05-17 22:38:00,
2013-05-17 18:47:00,84.0,76.0,30.01,East,88,4.0,8.0,76,0.00,,,0.00,,2013-05-17 22:47:00,
2013-05-17 18:55:00,83.0,75.0,30.01,East,97,5.0,7.0,78,0.00,,,0.00,,2013-05-17 22:55:00,
2013-05-17 19:04:00,83.0,75.0,30.01,East,95,5.0,7.0,78,0.00,,,0.00,,2013-05-17 23:04:00,
2013-05-17 19:13:00,83.0,75.0,30.01,East,95,5.0,7.0,78,0.00,,,0.00,,2013-05-17 23:13:00,
2013-05-17 19:23:00,82.0,75.0,30.01,East,93,4.0,7.0,79,0.00,,,0.00,,2013-05-17 23:23:00,
2013-05-17 19:37:00,82.0,75.0,30.01,ESE,113,2.0,7.0,80,0.00,,,0.00,,2013-05-17 23:37:00,
2013-05-17 19:47:00,82.0,75.0,30.01,ESE,113,2.0,7.0,80,0.00,,,0.00,,2013-05-17 23:47:00,
2013-05-17 19:54:00,82.0,76.0,30.02,ENE,75,1.0,6.0,81,0.00,,,0.00,,2013-05-17 23:54:00,
2013-05-17 20:02:00,82.0,76.0,30.02,East,80,4.0,7.0,81,0.00,,,0.00,,2013-05-18 00:02:00,
2013-05-17 20:14:00,82.0,76.0,30.02,East,80,4.0,7.0,81,0.00,,,0.00,,2013-05-18 00:14:00,
2013-05-17 20:22:00,81.0,75.0,30.02,ESE,109,3.0,7.0,82,0.00,,,0.00,,2013-05-18 00:22:00,
2013-05-17 20:33:00,81.0,75.0,30.02,SE,126,4.0,8.0,82,0.00,,,0.00,,2013-05-18 00:33:00,
2013-05-17 20:44:00,81.0,75.0,30.02,SE,126,4.0,8.0,82,0.00,,,0.00,,2013-05-18 00:44:00,
2013-05-17 20:54:00,81.0,76.0,30.03,East,95,2.0,7.0,84,0.00,,,0.00,,2013-05-18 00:54:00,
2013-05-17 21:03:00,81.0,76.0,30.03,ESE,119,0.0,7.0,85,0.00,,,0.00,,2013-05-18 01:03:00,
2013-05-17 21:13:00,81.0,76.0,30.03,ESE,119,0.0,7.0,85,0.00,,,0.00,,2013-05-18 01:13:00,
2013-05-17 21:24:00,80.0,75.0,30.03,ESE,113,3.0,7.0,86,0.00,,,0.00,,2013-05-18 01:24:00,
2013-05-17 21:32:00,80.0,75.0,30.03,SE,137,3.0,7.0,86,0.00,,,0.00,,2013-05-18 01:32:00,
2013-05-17 21:43:00,80.0,75.0,30.03,SE,137,3.0,7.0,86,0.00,,,0.00,,2013-05-18 01:43:00,
2013-05-17 21:52:00,80.0,76.0,30.04,ESE,106,3.0,9.0,87,0.00,,,0.00,,2013-05-18 01:52:00,
2013-05-17 22:02:00,80.0,76.0,30.05,SE,126,4.0,9.0,87,0.00,,,0.00,,2013-05-18 02:02:00,
2013-05-17 22:12:00,80.0,76.0,30.05,SE,126,4.0,9.0,87,0.00,,,0.00,,2013-05-18 02:12:00,
2013-05-17 22:22:00,80.0,76.0,30.05,East,84,4.0,9.0,88,0.00,,,0.00,,2013-05-18 02:22:00,
2013-05-17 22:32:00,80.0,76.0,30.05,ESE,122,4.0,9.0,88,0.00,,,0.00,,2013-05-18 02:32:00,
2013-05-17 22:42:00,80.0,76.0,30.05,ESE,122,4.0,9.0,88,0.00,,,0.00,,2013-05-18 02:42:00,
2013-05-17 22:54:00,79.0,75.0,30.06,ESE,106,4.0,8.0,88,0.00,,,0.00,,2013-05-18 02:54:00,
2013-05-17 23:03:00,79.0,75.0,30.06,East,96,5.0,8.0,88,0.00,,,0.00,,2013-05-18 03:03:00,
2013-05-17 23:12:00,79.0,75.0,30.06,East,96,5.0,8.0,88,0.00,,,0.00,,2013-05-18 03:12:00,
2013-05-17 23:23:00,79.0,75.0,30.06,SE,133,6.0,10.0,88,0.00,,,0.00,,2013-05-18 03:23:00,
2013-05-17 23:33:00,79.0,75.0,30.06,ESE,121,6.0,9.0,88,0.00,,,0.00,,2013-05-18 03:33:00,
2013-05-17 23:43:00,79.0,75.0,30.06,ESE,121,6.0,9.0,88,0.00,,,0.00,,2013-05-18 03:43:00,
2013-05-17 23:53:00,79.0,75.0,30.06,SE,126,5.0,8.0,88,0.00,,,0.00,,2013-05-18 03:53:00,